Content
SEND FEEDBACK

Daily
Averages
Monthly
Summary
Canada

ST. JOHN'S, NEWFOUNDLAND


Home > North America > Canada > Newfoundland
Elevation: 459 feet     Latitude: 47 37N     Longitude: 052 44W

WEATHER
 
SELECT A DAY
Number of Records: 206,008;   Date Range: 1/1/95 - 9/30/14
 
SHARE

PRINT THIS DATA

[ ← Previous Day ]
WEATHER ALMANAC - FEBRUARY 17, 2013
[ Next Day → ]
[ °C ]   °F
Weather ElementAverageHighLow
Temperature29 °F33.8 °F (11:30 pm)24.8 °F (1:30 am)
Dewpoint28.1 °F33.8 °F (11:30 pm)23 °F (1:30 am)
Humidity96.5 %100 % (7:30 am)93 % (1:30 am)
Barometer29.78 in30.16 in (1:30 am)29.25 in (11:30 pm)
Wind Speed20.8 mph36.8 mph (10:05 pm)
Wind Gust47.2 mph (7:55 pm)
Weather ElementAverage
Visibility9.7 mi
Wind DirectionSE (136.3 °)

Weather ElementTotal
Precipitation---
Heating Degree Days35.7 (Base 65)
Averaged from 35 records on February 17, 2013
WEATHER CONDITIONS BREAKOUT
WIND DIRECTION BREAKOUT
WEATHER BY HOUR - FEBRUARY 17, 2013
[ °C ]   °F
Local TimeTemperatureDewpointHumidityBarometerVisibilityWind DirectionWind SpeedGust SpeedPrecipitationEventsConditions
1:30 AM24.8 °F23.0 °F93 %30.16 in15.0 miWSW (250°)9.2 mphClear
2:30 AM25.0 °F24.0 °F93 %30.16 in15.0 miWSW (250°)9.2 mph
2:30 AM24.8 °F23.0 °F93 %30.16 in15.0 miWSW (250°)8.1 mphClear
3:30 AM24.8 °F23.0 °F93 %30.15 in25.0 miSW (230°)8.1 mphMostly Cloudy
4:30 AM24.8 °F23.0 °F93 %30.14 in15.0 miWSW (240°)5.8 mphMostly Cloudy
5:30 AM26.6 °F24.8 °F93 %30.09 in15.0 miEast (90°)5.8 mphMostly Cloudy
6:30 AM26.6 °F24.8 °F93 %30.11 in15.0 miEast (100°)4.6 mphMostly Cloudy
7:30 AM26.6 °F26.6 °F100 %30.12 in15.0 miSE (130°)6.9 mphOvercast
8:30 AM26.6 °F26.6 °F100 %30.09 in15.0 miEast (100°)6.9 mphOvercast
8:30 AM27.0 °F26.0 °F97 %30.09 in15.0 miESE (110°)6.9 mphOvercast
9:12 AM28.4 °F26.6 °F93 %30.07 in12.0 miESE (120°)11.5 mphOvercast
9:30 AM28.4 °F28.4 °F100 %30.07 in12.0 miSE (130°)12.7 mphOvercast
10:30 AM28.4 °F28.4 °F100 %30.07 in15.0 miESE (120°)15.0 mphOvercast
11:30 AM28.4 °F28.4 °F100 %30.03 in15.0 miSE (130°)18.4 mphOvercast
12:30 PM30.2 °F28.4 °F93 %30.00 in15.0 miESE (120°)17.3 mphOvercast
1:30 PM30.2 °F28.4 °F93 %29.94 in15.0 miEast (100°)16.1 mphOvercast
2:30 PM28.4 °F28.4 °F100 %29.86 in15.0 miESE (110°)19.6 mph26.5 mphOvercast
2:30 PM29.0 °F28.0 °F94 %29.86 in15.0 miESE (110°)20.7 mphOvercast
3:30 PM30.2 °F28.4 °F93 %29.79 in15.0 miSE (130°)24.2 mph34.5 mphOvercast
4:30 PM30.2 °F28.4 °F93 %29.74 in15.0 miESE (120°)25.3 mph38.0 mphOvercast
5:05 PM30.2 °F28.4 °F93 %29.70 in6.0 miESE (120°)33.4 mph44.9 mphSnowLight Snow
5:09 PM30.2 °F28.4 °F93 %29.69 in2.0 miSE (130°)32.2 mph44.9 mphSnowLight Snow
5:30 PM30.2 °F28.4 °F93 %29.67 in1.5 miESE (120°)27.6 mph41.4 mphSnowLight Snow
6:30 PM30.2 °F28.4 °F93 %29.54 in1.5 miESE (110°)32.2 mph46.0 mphSnowLight Snow
6:49 PM30.2 °F30.2 °F100 %29.52 in3.0 miESE (110°)33.4 mph44.9 mphRain-SnowLight Freezing Rain
7:21 PM30.2 °F30.2 °F100 %29.49 in3.0 miESE (120°)28.8 mph44.9 mphRainLight Freezing Rain
7:30 PM30.2 °F30.2 °F100 %29.48 in3.0 miESE (110°)32.2 mph44.9 mphRainLight Freezing Rain
7:55 PM30.2 °F30.2 °F100 %29.43 in2.0 miESE (110°)34.5 mph47.2 mphRainLight Freezing Rain
8:30 PM31.0 °F31.0 °F100 %29.40 in2.0 miESE (120°)34.5 mphSnowHeavy Snow
8:30 PM30.2 °F30.2 °F100 %29.40 in2.5 miESE (120°)32.2 mph47.2 mphRainLight Freezing Rain
9:30 PM32.0 °F32.0 °F100 %29.34 in2.0 miESE (120°)35.7 mph47.2 mphRainRain
10:05 PM32.0 °F32.0 °F100 %29.31 in1.2 miSE (130°)36.8 mph46.0 mphRainRain
10:30 PM32.0 °F32.0 °F100 %29.27 in1.5 miSE (130°)32.2 mph42.6 mphRainRain
10:39 PM32.0 °F32.0 °F100 %29.27 in1.5 miSE (130°)26.5 mph39.1 mphRainLight Rain
11:30 PM33.8 °F33.8 °F100 %29.25 in2.0 miSSE (150°)23.0 mph35.7 mphRainLight Rain
Hourly data recorded from CYYT, located miles away from St. John's, Newfoundland







STORIES FROM OUR PARTNERS